Total_Precipitation_Accumulation
0.71 0.73 0.61 0.61 0.64 0.78 0.93 1.05 1.11 1.34 1.47 1.24 0.99 0.93 0.94 1.04 0.98 1.05 0.97 0.91 0.86 0.92 1.10 1.17 1.04 0.92 0.81 0.74 0.70 0.67 0.63 0.58 0.53 0.48 0.50 0.56 0.57 0.58 0.54 0.47 0.42 0.36 0.31
0.88 0.89 0.81 0.83 0.80 0.85 1.01 1.22 1.38 1.68 1.66 1.53 1.19 1.06 1.05 1.08 1.04 1.03 1.03 1.09 1.01 0.92 0.91 0.98 1.02 0.94 0.86 0.79 0.71 0.63 0.58 0.59 0.52 0.40 0.36 0.41 0.45 0.48 0.51 0.53 0.48 0.39 0.33
1.02 1.03 0.92 0.91 1.02 1.19 1.34 1.39 1.55 1.79 1.50 1.45 1.20 1.14 1.07 0.96 0.87 0.87 0.99 1.04 0.95 0.86 0.88 0.90 0.89 0.85 0.84 0.85 0.81 0.74 0.59 0.52 0.46 0.40 0.36 0.35 0.38 0.38 0.40 0.45 0.47 0.42 0.34
1.15 1.29 1.15 1.09 1.45 1.55 1.59 1.71 1.83 1.81 1.65 1.58 1.37 1.16 1.02 0.96 0.78 0.72 0.71 0.75 0.82 0.72 0.79 0.85 0.80 0.74 0.80 0.90 0.98 1.00 0.83 0.65 0.52 0.46 0.40 0.40 0.43 0.40 0.34 0.34 0.38 0.34 0.28
1.34 1.53 1.45 1.52 1.81 1.87 1.83 1.78 2.00 1.98 1.79 1.70 1.53 1.22 0.93 0.82 0.69 0.60 0.53 0.49 0.56 0.60 0.60 0.62 0.63 0.64 0.79 1.01 1.11 1.09 1.00 0.82 0.64 0.54 0.52 0.51 0.57 0.49 0.34 0.28 0.31 0.32 0.26
1.54 1.79 1.64 1.65 1.86 1.95 1.88 1.83 1.78 1.84 1.65 1.60 1.49 1.17 0.85 0.62 0.57 0.47 0.39 0.36 0.36 0.36 0.41 0.49 0.55 0.48 0.59 0.82 0.91 1.02 1.12 1.00 0.79 0.67 0.67 0.69 0.75 0.66 0.40 0.29 0.29 0.29 0.29
1.50 1.76 1.67 1.77 1.83 1.77 1.74 1.80 1.79 1.63 1.34 1.52 1.53 1.11 0.71 0.56 0.51 0.35 0.32 0.30 0.26 0.26 0.30 0.39 0.49 0.51 0.50 0.54 0.71 0.81 0.96 1.00 0.85 0.75 0.75 0.76 0.86 0.86 0.56 0.41 0.38 0.32 0.35
1.57 1.65 1.69 1.70 1.74 1.72 1.61 1.57 1.65 1.49 1.24 1.37 1.41 1.29 0.77 0.55 0.45 0.35 0.38 0.42 0.40 0.37 0.34 0.38 0.42 0.53 0.58 0.69 0.74 0.60 0.65 0.87 0.97 0.96 0.90 0.76 0.74 0.78 0.68 0.62 0.58 0.51 0.52
1.74 1.74 1.69 1.58 1.46 1.42 1.33 1.34 1.45 1.42 1.26 1.23 1.38 1.48 1.09 0.73 0.63 0.47 0.46 0.46 0.48 0.49 0.45 0.46 0.47 0.55 0.63 0.75 0.87 0.84 0.61 0.70 0.90 1.12 1.12 0.88 0.67 0.64 0.69 0.72 0.75 0.70 0.70
1.54 1.39 1.27 1.25 1.19 1.20 1.10 1.05 1.15 1.18 1.11 1.05 1.16 1.26 1.29 1.23 1.09 0.65 0.43 0.37 0.43 0.50 0.54 0.51 0.45 0.49 0.59 0.74 0.88 1.04 0.81 0.65 0.67 0.91 1.09 1.00 0.79 0.65 0.63 0.72 0.93 0.93 0.76
1.18 1.02 0.93 0.92 0.90 0.91 0.86 0.83 0.84 0.86 0.89 0.90 1.02 1.16 1.22 1.24 1.21 1.06 0.69 0.60 0.61 0.55 0.56 0.54 0.54 0.54 0.55 0.67 0.86 0.89 0.95 0.85 0.75 0.67 0.74 0.85 0.90 0.81 0.79 0.97 1.23 1.38 1.23
0.79 0.67 0.64 0.66 0.71 0.77 0.75 0.73 0.75 0.75 0.80 0.89 0.92 1.01 1.11 1.08 1.07 1.12 0.90 0.76 0.68 0.59 0.59 0.62 0.64 0.69 0.64 0.69 0.73 0.89 0.87 0.70 0.63 0.60 0.57 0.63 0.73 0.80 0.85 1.04 1.39 1.67 1.77
0.62 0.55 0.53 0.56 0.63 0.69 0.66 0.63 0.63 0.73 0.85 0.92 0.89 0.93 1.03 1.05 1.07 1.16 1.09 0.97 0.86 0.78 0.79 0.80 0.66 0.56 0.47 0.52 0.57 0.60 0.53 0.42 0.38 0.38 0.39 0.43 0.51 0.63 0.80 0.99 1.22 1.47 1.66
0.58 0.57 0.52 0.53 0.54 0.59 0.58 0.61 0.61 0.68 0.79 0.86 0.84 0.96 1.04 1.08 1.19 1.29 1.29 1.23 1.08 0.96 0.89 0.83 0.69 0.55 0.49 0.50 0.43 0.37 0.33 0.30 0.22 0.20 0.21 0.23 0.29 0.41 0.60 0.77 0.93 1.08 1.21
0.50 0.57 0.56 0.57 0.59 0.63 0.65 0.71 0.76 0.84 0.98 1.04 1.09 1.18 1.21 1.17 1.19 1.23 1.26 1.27 1.26 1.09 0.90 0.79 0.69 0.60 0.57 0.57 0.47 0.39 0.42 0.28 0.17 0.14 0.13 0.14 0.20 0.30 0.37 0.43 0.56 0.70 0.84
0.41 0.49 0.56 0.57 0.59 0.60 0.64 0.74 0.93 1.09 1.18 1.23 1.26 1.33 1.37 1.32 1.31 1.34 1.30 1.31 1.36 1.24 0.98 0.77 0.71 0.67 0.65 0.54 0.47 0.42 0.34 0.22 0.16 0.13 0.10 0.09 0.13 0.19 0.19 0.22 0.31 0.41 0.54
0.36 0.40 0.46 0.50 0.53 0.56 0.59 0.68 0.82 1.00 1.11 1.14 1.16 1.22 1.23 1.22 1.20 1.18 1.22 1.30 1.37 1.33 1.08 0.85 0.87 0.88 0.82 0.70 0.59 0.48 0.35 0.26 0.19 0.14 0.09 0.08 0.08 0.11 0.13 0.16 0.19 0.24 0.33
0.35 0.36 0.37 0.39 0.41 0.45 0.51 0.61 0.74 0.85 0.93 0.96 0.96 0.95 0.93 0.91 0.91 0.92 0.98 1.04 1.09 1.21 1.16 0.99 1.02 1.04 0.99 0.91 0.82 0.69 0.48 0.31 0.24 0.21 0.15 0.11 0.09 0.09 0.10 0.13 0.18 0.23 0.29
0.27 0.28 0.30 0.35 0.42 0.52 0.61 0.67 0.71 0.74 0.76 0.79 0.85 0.89 0.82 0.78 0.78 0.78 0.80 0.80 0.81 0.95 1.02 1.01 1.01 1.04 1.02 0.99 0.86 0.74 0.64 0.46 0.31 0.25 0.20 0.17 0.13 0.11 0.10 0.11 0.16 0.24 0.30
0.21 0.25 0.30 0.37 0.45 0.52 0.61 0.66 0.66 0.65 0.61 0.57 0.60 0.65 0.67 0.65 0.64 0.66 0.69 0.69 0.70 0.81 0.91 0.96 1.00 1.08 1.06 0.98 0.86 0.73 0.75 0.65 0.51 0.38 0.32 0.26 0.25 0.21 0.16 0.14 0.14 0.18 0.29
0.21 0.26 0.31 0.38 0.42 0.44 0.45 0.42 0.41 0.40 0.39 0.36 0.35 0.38 0.43 0.48 0.51 0.52 0.55 0.64 0.69 0.71 0.76 0.80 0.83 0.95 1.09 1.09 0.91 0.77 0.79 0.78 0.70 0.55 0.45 0.36 0.32 0.27 0.24 0.20 0.16 0.16 0.23
0.22 0.27 0.32 0.37 0.38 0.33 0.37 0.28 0.20 0.20 0.24 0.28 0.31 0.32 0.33 0.35 0.39 0.42 0.43 0.50 0.61 0.66 0.66 0.67 0.72 0.83 0.95 1.02 1.04 0.97 0.87 0.76 0.73 0.69 0.61 0.56 0.47 0.42 0.40 0.33 0.23 0.19 0.19
0.23 0.26 0.27 0.27 0.29 0.32 0.31 0.24 0.15 0.15 0.18 0.21 0.25 0.27 0.25 0.26 0.28 0.29 0.31 0.32 0.36 0.43 0.51 0.60 0.63 0.66 0.72 0.79 0.84 0.86 0.93 0.98 0.97 0.89 0.84 0.89 0.74 0.59 0.52 0.44 0.27 0.19 0.18
0.29 0.28 0.27 0.26 0.31 0.31 0.26 0.21 0.16 0.15 0.20 0.22 0.23 0.24 0.23 0.20 0.20 0.23 0.26 0.25 0.23 0.24 0.28 0.36 0.45 0.56 0.66 0.74 0.79 0.72 0.74 0.85 0.99 1.03 0.95 0.95 0.91 0.82 0.70 0.59 0.42 0.27 0.20
0.35 0.32 0.31 0.32 0.35 0.36 0.29 0.21 0.17 0.19 0.25 0.26 0.27 0.24 0.22 0.18 0.17 0.17 0.22 0.25 0.26 0.24 0.24 0.26 0.32 0.45 0.61 0.65 0.72 0.68 0.56 0.50 0.56 0.63 0.72 0.85 0.89 0.86 0.83 0.72 0.54 0.36 0.23
0.43 0.37 0.34 0.36 0.40 0.44 0.41 0.26 0.21 0.25 0.32 0.33 0.37 0.31 0.23 0.20 0.18 0.16 0.18 0.21 0.22 0.23 0.24 0.24 0.25 0.31 0.41 0.51 0.57 0.58 0.52 0.41 0.34 0.33 0.29 0.37 0.56 0.69 0.83 0.82 0.72 0.58 0.44